Cortez, CO

4:28 AM MDT on October 22, 2017 (GMT -0600)
Cortez Municipal

Weather History for KCEZ - May, 2012

Change the Weather History Date:

Thursday, May 17, 2012

  Actual Average Record
Temperature  
Mean Temperature 62 °F 56 °F  
Max Temperature 85 °F 75 °F 86 °F (2006)
Min Temperature 38 °F 37 °F 25 °F (1999)
Degree Days  
Heating Degree Days 3 9  
Month to date heating degree days 127 194  
Since 1 July heating degree days 5842 6264  
Cooling Degree Days 0 0  
Month to date cooling degree days 0 0  
Year to date cooling degree days 0 0  
Growing Degree Days 10 (Base 50)    
Moisture  
Dew Point 23 °F    
Average Humidity 36    
Maximum Humidity 64    
Minimum Humidity 7    
Precipitation  
Precipitation 0.00 in 0.02 in 0.15 in (2017)
Month to date precipitation 0.01 0.63  
Year to date precipitation 2.42 4.85  
Sea Level Pressure  
Sea Level Pressure 29.79 in    
Wind  
Wind Speed 7 mph (South)    
Max Wind Speed 22 mph    
Max Gust Speed 30 mph    
Visibility 10 miles    
Events      
T = Trace of Precipitation, MM = Missing Value Source: NWS Daily Summary

Daily Weather History Graph

Daily Weather History Graph

Search for Another Location

Airport or City:

Trip Planner

Search our weather history database for the weather conditions in past years. The results will help you decide how hot, cold, wet, or windy it might be!

Date:

Astronomy

May. 17, 2012 Rise Set
Actual Time 6:03 AM MDT 8:18 PM MDT
Civil Twilight 5:34 AM MDT 8:48 PM MDT
Nautical Twilight 4:58 AM MDT 9:24 PM MDT
Astronomical Twilight 4:19 AM MDT 10:03 PM MDT
Moon 4:00 AM MDT (5/17) 5:36 PM MDT (5/17)
Length of Visible Light 15h 13m
Length of Day
14h 14m
Waning Crescent, 9% of the Moon is Illuminated
May 17
Waning Crescent
May 20
New
May 28
First Quarter
Jun 4
Full
Jun 11
Last Quarter

Hourly Weather History & Observations

Time (MDT) Temp. Windchill Dew Point Humidity Pressure Visibility Wind Dir Wind Speed Gust Speed Precip Events Conditions
12:53 AM 43.0 °F 41.3 °F 28.9 °F 58% 29.87 in 10.0 mi ENE 3.5 mph - N/A   Clear
1:53 AM 48.0 °F - 30.9 °F 52% 29.85 in 10.0 mi NE 3.5 mph - N/A   Clear
2:53 AM 44.1 °F 40.1 °F 30.0 °F 58% 29.86 in 10.0 mi East 6.9 mph - N/A   Clear
3:53 AM 41.0 °F 37.1 °F 28.9 °F 62% 29.87 in 10.0 mi NNE 5.8 mph - N/A   Clear
4:53 AM 43.0 °F 39.5 °F 30.0 °F 60% 29.89 in 10.0 mi ESE 5.8 mph - N/A   Clear
5:53 AM 39.0 °F 36.8 °F 28.9 °F 67% 29.91 in 10.0 mi ESE 3.5 mph - N/A   Clear
6:53 AM 43.0 °F 40.3 °F 30.0 °F 60% 29.91 in 10.0 mi ENE 4.6 mph - N/A   Clear
7:53 AM 54.0 °F - 33.1 °F 45% 29.90 in 10.0 mi Calm Calm - N/A   Clear
8:53 AM 63.0 °F - 34.0 °F 34% 29.88 in 10.0 mi Calm Calm - N/A   Clear
9:53 AM 69.1 °F - 30.9 °F 24% 29.88 in 10.0 mi South 5.8 mph - N/A   Clear
10:53 AM 72.0 °F - 28.0 °F 20% 29.87 in 10.0 mi Variable 4.6 mph - N/A   Clear
11:53 AM 79.0 °F - 30.0 °F 17% 29.86 in 10.0 mi South 8.1 mph - N/A   Clear
12:53 PM 80.1 °F - 23.0 °F 12% 29.83 in 10.0 mi SSW 11.5 mph 20.7 mph N/A   Clear
1:53 PM 81.0 °F - 16.0 °F 9% 29.79 in 10.0 mi NW 8.1 mph 21.9 mph N/A   Clear
2:53 PM 81.0 °F - 17.1 °F 9% 29.78 in 10.0 mi NW 12.7 mph 23.0 mph N/A   Clear
3:53 PM 82.9 °F - 14.0 °F 8% 29.76 in 10.0 mi SW 9.2 mph 23.0 mph N/A   Clear
4:53 PM 82.9 °F - 14.0 °F 8% 29.71 in 10.0 mi Variable 6.9 mph 18.4 mph N/A   Clear
5:33 PM 82.4 °F - 14.0 °F 8% 29.90 in 10.0 mi WSW 8.1 mph 24.2 mph N/A   Clear
5:53 PM 82.9 °F - 15.1 °F 8% 29.70 in 10.0 mi West 8.1 mph - N/A   Clear
6:53 PM 82.0 °F - 14.0 °F 8% 29.66 in 10.0 mi SW 9.2 mph - N/A   Clear
7:53 PM 75.9 °F - 17.1 °F 11% 29.64 in 10.0 mi WSW 6.9 mph - N/A   Clear
8:53 PM 66.0 °F - 18.0 °F 16% 29.64 in 10.0 mi South 8.1 mph - N/A   Clear
9:53 PM 63.0 °F - 19.9 °F 19% 29.64 in 10.0 mi ENE 3.5 mph - N/A   Clear
10:53 PM 61.0 °F - 21.0 °F 21% 29.65 in 10.0 mi SSW 5.8 mph - N/A   Clear
11:53 PM 64.0 °F - 17.1 °F 16% 29.61 in 10.0 mi South 15.0 mph - N/A   Clear